FAF971 TFFG-TFFR

Flight info

Callsign FAF971
Flight time N/A
Altitude 13000
Route ZPATA A517 BIMBO BIMBO2A
Aircraft C160/M-SDFGHIRTUY/S

Departure

Time 2026-04-26 00:57
Airport Grand Case-l'Espérance Airport (TFFG)

Arrival

Time N/A
Airport Maryse Condé International Airport (TFFR)
Time Latitude Longitude Altitude Speed Heading
2026-04-25 22:58 18.10131 -63.04758 17 ft 0 kts 17°
2026-04-26 00:49 18.10135 -63.04746 18 ft 4 kts 105°
2026-04-26 00:49 18.10115 -63.04753 16 ft 6 kts 233°
2026-04-26 00:49 18.10110 -63.04804 16 ft 9 kts 286°
2026-04-26 00:50 18.10123 -63.04857 16 ft 5 kts 272°
2026-04-26 00:50 18.10110 -63.04873 17 ft 4 kts 194°
2026-04-26 00:50 18.10109 -63.04873 17 ft 0 kts 194°
2026-04-26 00:51 18.10107 -63.04874 16 ft 2 kts 195°
2026-04-26 00:51 18.10061 -63.04904 12 ft 12 kts 241°
2026-04-26 00:51 18.10083 -63.04998 12 ft 16 kts 287°
2026-04-26 00:52 18.10117 -63.05116 14 ft 12 kts 285°
2026-04-26 00:52 18.10136 -63.05210 12 ft 10 kts 273°
2026-04-26 00:52 18.10147 -63.05225 13 ft 2 kts
2026-04-26 00:52 18.10150 -63.05209 14 ft 5 kts 113°
2026-04-26 00:53 18.10156 -63.05233 13 ft 7 kts 91°
2026-04-26 00:53 18.10154 -63.05235 13 ft 4 kts 104°
2026-04-26 00:53 18.10149 -63.05217 13 ft 4 kts 110°
2026-04-26 00:53 18.10128 -63.05175 13 ft 9 kts 124°
2026-04-26 00:54 18.10103 -63.05132 12 ft 3 kts 65°
2026-04-26 00:54 18.10139 -63.05145 12 ft 8 kts 301°
2026-04-26 00:54 18.10174 -63.05239 12 ft 7 kts 266°
2026-04-26 00:54 18.10155 -63.05247 12 ft 2 kts 139°
2026-04-26 00:55 18.10151 -63.05230 13 ft 4 kts 101°
2026-04-26 00:55 18.10149 -63.05222 13 ft 0 kts 102°
2026-04-26 00:56 18.10148 -63.05217 14 ft 10 kts 103°
2026-04-26 00:56 18.10051 -63.04884 12 ft 82 kts 106°
2026-04-26 00:56 18.09827 -63.04131 41 ft 129 kts 108°
2026-04-26 00:57 18.09529 -63.03171 322 ft 150 kts 108°
2026-04-26 00:57 18.09530 -63.01992 653 ft 172 kts 76°
2026-04-26 00:57 18.09911 -63.01245 918 ft 183 kts 54°
2026-04-26 00:57 18.10098 -63.01021 950 ft 192 kts 47°